Regional Weather Roundup
Issued by NWS

Home | Current Version | Previous Version | Graphics & Text | Print | Product List | Glossary Off
Versions: 1 2 3 4 5 6 7 8 9 10 11 12 13 14 15 16 17 18 19 20 21 22 23 24 25 26 27 28 29 30 31 32 33 34 35 36 37 38 39 40 41 42 43 44 45 46 47 48 49 50

000
ASUS43 KLSX 240710
RWRMO

WEATHER SUMMARY FOR MISSOURI
NATIONAL WEATHER SERVICE SPRINGFIELD MO
200 AM CDT THU MAY 24 2018

NOTE: "FAIR" INDICATES FEW OR NO CLOUDS BELOW 12,000 FEET WITH NO
       SIGNIFICANT WEATHER AND/OR OBSTRUCTIONS TO VISIBILITY.
       CURRENT SKY AND/OR WEATHER CONDITIONS ARE NOT AVAILABLE FOR
       CHILLICOTHE AND FARMINGTON.

MOZ001>031-035>038-043-044-053-054-240800-
...NORTHERN AND WESTERN MISSOURI...

CITY           SKY/WX    TMP DP  RH WIND       PRES   REMARKS
KANSAS CTY INT MOCLDY    70  64  81 S10       30.07S
KANSAS C DTWN  CLOUDY    73  63  70 SE5       30.06S
LEE`S SUMMIT   CLEAR     68  64  87 SE8       30.09S
ST JOSEPH      MOCLDY    72  65  78 SE8       30.05S
CHILLICOTHE      N/A     71  65  81 S3        30.10S
KIRKSVILLE     CLEAR    N/A N/A N/A S6        30.12F

$$
MOZ066>068-077>081-088>096-101>105-240800-
...SOUTHWEST MISSOURI...

CITY           SKY/WX    TMP DP  RH WIND       PRES   REMARKS
SPRINGFIELD    MOCLDY    66  63  90 S7        30.11F
JOPLIN         CLOUDY    66  65  96 E3        30.09F
BRANSON        CLOUDY    64  64 100 CALM      30.13F

$$
MOZ032>034-039>042-045>050-055>058-069>072-240800-
...CENTRAL MISSOURI...

CITY           SKY/WX    TMP DP  RH WIND       PRES   REMARKS
COLUMBIA       CLOUDY    70  65  84 CALM      30.12F
JEFFERSON CITY CLEAR     69  66  90 CALM      30.11F
ROLLA          CLEAR     66  64  93 CALM      30.14F
SEDALIA        PTCLDY    68  67  96 S6        30.11F
WHITEMAN AFB   PTCLDY    67  65  93 S6        30.06F
WARRENSBURG    MOCLDY    64  63  94 SE6       30.09F
OSAGE BEACH    PTCLDY    65  64  97 CALM      30.13F

$$
MOZ051-052-059>065-240800-
...EAST CENTRAL MISSOURI...

CITY           SKY/WX    TMP DP  RH WIND       PRES   REMARKS
ST LOUIS INTL  MOCLDY    74  63  68 CALM      30.12R
SPIRIT OF STL  CLEAR     67  65  93 CALM      30.10S
ST CHARLES     CLEAR     68  66  93 CALM      30.10S

$$
MOZ072>076-082>087-097>100-106>115-240800-
...SOUTH CENTRAL AND SOUTHEAST MISSOURI...

CITY           SKY/WX    TMP DP  RH WIND       PRES   REMARKS
CAPE GIRARDEAU FAIR      68  66  93 E3        30.09S
FARMINGTON     PTCLDY    65  64  97 CALM      30.14R
POPLAR BLUFF   FAIR      70  69  97 CALM      30.09R
WEST PLAINS    CLOUDY    67  65  93 NE3       30.14F

$$




USA.gov is the U.S. government's official web portal to all federal, state and local government web resources and services.